Location: Barrio Pajares
(40.5500°N, 4.1667°W)
Time: 19:36:01
(UTC+00:00)

Cosmos 2297 Rocket - Pass Details

Date: 18 April 2024
Orbit: 841 x 841 km, 71.0° (Epoch: 18 May)

Event Time Altitude Azimuth Distance (km) Brightness Sun altitude
Rises 20:31:06 0° 344° (NNW) 3,403 6.1 -16.8°
Reaches altitude 10° 20:33:48 10° 353° (N) 2,465 5.1 -17.2°
Maximum altitude 20:38:55 34° 58° (ENE) 1,351 3.0 -18.0°
Enters shadow 20:40:47 28° 95° (E) 1,547 3.1 -18.3°
